Location: Bush Observatory
(40.2653°N, 94.3194°W)
Time: 14:27:28
(UTC-05:00)

OTV 5 (USA 277) - Visible Passes

Search period start: 26 April 2018 00:00
Search period end: 06 May 2018 00:00
Orbit: 308 x 325 km, 54.5° (Epoch: 25 April)

Date Brightness Start Highest point End Pass type
(mag) Time Alt. Az. Time Alt. Az. Time Alt. Az.
30 Apr ? 22:06:26 10° N 22:07:58 14° NNE 22:07:58 14° NNE visible
01 May ? 22:20:10 10° NNW 22:21:43 23° N 22:21:43 23° N visible
02 May ? 21:01:32 10° N 21:02:15 11° NNE 21:02:59 10° NE visible
02 May ? 22:34:16 10° NW 22:35:29 23° NW 22:35:29 23° NW visible
03 May ? 21:14:46 10° NNW 21:16:51 19° NNE 21:18:25 13° ENE visible
03 May ? 22:48:47 10° WNW 22:49:17 14° WNW 22:49:17 14° WNW visible
04 May ? 21:28:39 10° NW 21:31:17 45° NE 21:32:14 29° E visible
05 May ? 21:42:54 10° WNW 21:45:32 53° SW 21:46:07 42° S visible
